Location: Zagreb
(45.8000°N, 16.0000°E)
Time: 14:10:00
(UTC+02:00)

Vanguard 1 - Visible Passes

Search period start: 19 July 2024 00:00
Search period end: 29 July 2024 00:00
Orbit: 650 x 3826 km, 34.3° (Epoch: 15 July)

Date Brightness Start Highest point End Pass type
(mag) Time Alt. Az. Time Alt. Az. Time Alt. Az.
19 Jul 13.5 02:28:58 16° S 02:40:41 26° SE 02:57:07 10° E visible
19 Jul 13.3 04:42:54 10° SW 05:04:04 49° SSE 05:22:58 10° E visible
20 Jul 13.4 02:47:26 18° S 03:00:11 32° SE 03:18:19 10° E visible
21 Jul 13.7 00:53:17 12° SE 00:58:21 13° ESE 01:06:42 10° ESE visible
21 Jul 13.3 03:05:52 19° SSW 03:19:46 38° SE 03:39:07 10° E visible
22 Jul 13.5 01:11:41 17° SSE 01:17:27 19° SE 01:30:38 10° E visible
22 Jul 13.2 03:24:16 19° SSW 03:39:30 44° SSE 03:59:41 10° E visible
23 Jul 13.3 01:30:03 21° SSE 01:36:39 25° SE 01:52:46 10° E visible
23 Jul 13.2 03:42:38 17° SW 03:59:21 49° SSE 04:20:05 10° E visible
24 Jul 13.1 01:48:22 25° SSE 01:55:57 31° SE 02:14:07 10° E visible
24 Jul 13.1 04:00:57 14° SW 04:19:19 54° SSE 04:40:22 10° E visible
24 Jul 13.6 23:54:06 11° ESE 23:54:59 11° ESE 23:59:41 10° ESE visible
25 Jul 13.0 02:06:41 27° S 02:15:23 37° SE 02:35:02 10° E visible
25 Jul 13.1 04:19:15 11° WSW 04:39:23 57° SSE 05:00:34 10° E visible
26 Jul 13.4 00:12:23 16° SE 00:13:56 17° SE 00:24:59 10° E visible
26 Jul 12.9 02:24:57 28° SSW 02:34:58 43° SSE 02:55:43 10° E visible
26 Jul 13.1 04:38:37 10° WSW 04:59:31 60° S 05:20:42 10° E visible
27 Jul 13.2 00:30:38 22° SE 00:32:58 22° SE 00:47:28 10° E visible
27 Jul 12.9 02:43:12 27° SSW 02:54:42 48° SSE 03:16:12 10° E visible
27 Jul 13.1 04:58:33 10° WSW 05:19:43 61° S 05:40:46 10° ESE visible
28 Jul 13.0 00:48:51 27° SSE 00:52:08 28° SE 01:09:00 10° E visible
28 Jul 12.9 03:01:26 24° SW 03:14:34 53° SSE 03:36:35 10° E visible
